Date,TemperatureHighF,TemperatureAvgF,TemperatureLowF,DewpointHighF,DewpointAvgF,DewpointLowF,HumidityHigh,HumidityAvg,HumidityLow,PressureMaxIn,PressureMinIn,WindSpeedMaxMPH,WindSpeedAvgMPH,GustSpeedMaxMPH,PrecipitationSumIn
2013-3-1,68,58,51,51,45,40,88,64,41,30.03,29.92,16,1,16,0.00
2013-3-2,61,53,45,43,39,33,79,62,37,30.06,29.96,21,2,21,0.00
2013-3-3,56,50,43,38,37,36,79,63,50,30.19,30.03,20,2,20,0.00
2013-3-4,68,51,36,44,36,29,91,61,28,30.28,30.13,13,0,13,0.00
2013-3-5,79,62,45,58,48,42,92,64,35,30.22,30.01,15,0,15,0.00
2013-3-6,71,61,51,62,44,32,91,58,25,30.16,29.92,21,2,21,0.00
2013-3-7,72,56,42,50,44,36,86,66,40,30.25,30.14,12,0,12,0.00
2013-3-8,77,62,45,51,47,36,92,62,26,30.26,30.13,9,0,9,0.00
2013-3-9,77,62,49,56,52,46,91,71,46,30.26,30.17,6,0,6,0.00
2013-3-10,80,65,55,61,56,52,91,75,46,30.22,30.10,9,0,10,0.00
2013-3-11,80,68,56,63,59,54,92,74,53,30.15,29.93,9,0,9,0.00
2013-3-12,72,67,60,68,63,57,93,86,78,30.05,29.88,10,0,10,0.16
2013-3-13,79,63,51,57,47,34,92,62,23,30.19,30.04,12,1,13,0.00
2013-3-14,71,55,47,49,41,32,79,62,25,30.30,30.17,12,0,12,0.00
2013-3-15,76,61,44,48,42,35,92,55,27,30.33,30.15,8,0,10,0.00
2013-3-16,84,63,51,52,48,42,87,62,24,30.21,30.05,10,0,11,0.00
2013-3-17,80,67,53,62,55,46,91,67,44,30.17,30.01,7,0,7,0.00
2013-3-18,81,73,65,67,63,60,86,73,58,30.09,29.92,8,0,8,0.01
2013-3-19,91,75,64,66,63,57,92,70,34,30.05,29.89,9,0,10,0.00
2013-3-20,77,68,60,68,63,58,93,84,67,30.00,29.80,15,0,15,1.16
2013-3-21,74,61,51,58,47,33,93,65,25,30.00,29.88,16,1,16,0.00
2013-3-22,81,62,48,62,53,46,92,74,40,30.06,29.92,6,0,6,0.24
2013-3-23,85,72,63,75,67,60,94,84,64,30.02,29.79,14,0,16,0.25
2013-3-24,82,73,68,73,69,65,93,87,69,29.88,29.64,22,1,26,0.40
2013-3-25,76,66,57,66,50,33,91,61,22,30.06,29.73,18,2,18,0.00
2013-3-26,65,56,47,45,36,28,65,49,28,30.21,30.05,23,2,23,0.00
2013-3-27,69,61,50,46,40,34,80,48,30,30.33,30.22,11,1,11,0.00
2013-3-28,77,58,43,48,42,33,90,61,23,30.34,30.20,10,0,10,0.00
2013-3-29,80,62,47,50,44,35,91,59,22,30.37,30.21,8,0,8,0.00
2013-3-30,83,66,50,57,51,47,92,63,32,30.30,30.13,7,0,8,0.00
2013-3-31,87,74,62,59,56,53,80,56,31,30.20,30.01,7,0,10,0.00